Content
SEND FEEDBACK

Daily
Averages
Monthly
Summary
United States of America

CHESTER, SOUTH DAKOTA


Home > North America > United States > South Dakota
Elevation: 1624 feet     Latitude: 43 54N     Longitude: 096 54W

WEATHER
 
SELECT A DAY
Number of Records: 136,172;   Date Range: 3/17/09 - 10/24/14
 
SHARE

PRINT THIS DATA

[ ← Previous Day ]
WEATHER ALMANAC - JANUARY 31, 2013
[ Next Day → ]
[ °C ]   °F
Weather ElementAverageHighLow
Temperature-8.5 °F-5.8 °F (1:00 pm)-9.4 °F (6:40 am)
Dewpoint-11.4 °F (12:40 pm)-13 °F (7:00 am)
Humidity84.6 %92 % (6:40 am)77 % (10:00 am)
Barometer30.21 in30.28 in (8:20 pm)30.02 in (6:40 am)
Wind Speed19.8 mph27.6 mph (10:20 am)
Wind Gust35.7 mph (11:40 am)
Weather ElementAverage
Visibility9.6 mi
Wind DirectionNW (311 °)

Weather ElementTotal
Precipitation---
Heating Degree Days72.6 (Base 65)
Averaged from 51 records on January 31, 2013
WEATHER CONDITIONS BREAKOUT
WIND DIRECTION BREAKOUT
WEATHER BY HOUR - JANUARY 31, 2013
[ °C ]   °F
Local TimeTemperatureDewpointHumidityBarometerVisibilityWind DirectionWind SpeedGust SpeedPrecipitationEventsConditions
6:40 AM-9.4 °F-11.2 °F92 %30.02 in10.0 miNW (320°)24.2 mph28.8 mphMostly Cloudy
7:00 AM-9.4 °F-13.0 °F84 %30.04 in10.0 miNW (320°)21.9 mph28.8 mph
7:20 AM-9.4 °F-13.0 °F84 %30.05 in10.0 miNNW (330°)23.0 mph29.9 mph
7:40 AM-9.4 °F-13.0 °F84 %30.06 in10.0 miNW (320°)23.0 mph29.9 mph
8:00 AM-9.4 °F-13.0 °F84 %30.07 in10.0 miNW (320°)23.0 mph26.5 mph
8:20 AM-9.4 °F-13.0 °F84 %30.08 in10.0 miNNW (330°)21.9 mph31.1 mph
8:40 AM-9.4 °F-13.0 °F84 %30.10 in7.0 miNNW (330°)21.9 mph33.4 mphSnowLight Snow
9:05 AM-9.4 °F-13.0 °F84 %30.11 in10.0 miNW (320°)26.5 mph31.1 mph
9:20 AM-9.4 °F-13.0 °F84 %30.12 in10.0 miNW (320°)24.2 mph32.2 mph
9:40 AM-9.4 °F-13.0 °F84 %30.13 in10.0 miNW (320°)25.3 mph34.5 mphSnowLight Snow
10:00 AM-7.6 °F-13.0 °F77 %30.15 in9.0 miNW (320°)24.2 mph34.5 mphSnowLight Snow
10:20 AM-7.6 °F-11.2 °F84 %30.16 in10.0 miNW (320°)27.6 mph34.5 mph
11:00 AM-7.6 °F-13.0 °F77 %30.18 in10.0 miNNW (330°)26.5 mph32.2 mph
11:20 AM-7.6 °F-11.2 °F84 %30.18 in10.0 miNW (320°)26.5 mph34.5 mph
11:40 AM-7.6 °F-13.0 °F77 %30.19 in10.0 miNW (320°)26.5 mph35.7 mph
12:00 PM-7.6 °F-11.2 °F84 %30.20 in9.0 miNW (320°)24.2 mph33.4 mph
12:20 PM-7.6 °F-11.2 °F84 %30.20 in7.0 miNW (320°)24.2 mph34.5 mph
12:40 PM-7.6 °F0.0 °F30.21 in9.0 miNW (310°)27.6 mph33.4 mph
1:00 PM-5.8 °F-11.2 °F77 %30.21 in9.0 miNW (320°)26.5 mph34.5 mph
1:20 PM-5.8 °F-11.2 °F77 %30.21 in10.0 miNW (310°)27.6 mph35.7 mph
1:40 PM-7.6 °F-13.0 °F77 %30.22 in10.0 miNW (320°)25.3 mph34.5 mph
2:00 PM-5.8 °F-11.2 °F77 %30.22 in10.0 miNW (310°)27.6 mph34.5 mph
2:20 PM-5.8 °F-11.2 °F77 %30.22 in10.0 miNW (310°)25.3 mph33.4 mph
2:40 PM-5.8 °F0.0 °F30.22 in9.0 miNW (310°)25.3 mph29.9 mph
3:00 PM-7.6 °F-13.0 °F77 %30.22 in10.0 miNW (310°)24.2 mph29.9 mph
3:20 PM-7.6 °F-13.0 °F77 %30.23 in10.0 miNW (310°)26.5 mph31.1 mph
3:40 PM-7.6 °F-11.2 °F84 %30.24 in7.0 miNW (310°)24.2 mph27.6 mphSnowLight Snow
4:00 PM-7.6 °F-13.0 °F77 %30.24 in10.0 miNW (320°)20.7 mph28.8 mph
4:20 PM-7.6 °F-13.0 °F77 %30.24 in10.0 miNW (320°)23.0 mph26.5 mph
4:40 PM-7.6 °F-13.0 °F77 %30.24 in10.0 miNW (310°)20.7 mph29.9 mph
5:00 PM-7.6 °F-11.2 °F84 %30.25 in8.0 miNW (310°)23.0 mph27.6 mph
5:20 PM-9.4 °F-11.2 °F92 %30.25 in7.0 miNW (310°)17.3 mphSnowLight Snow
5:40 PM-9.4 °F-13.0 °F84 %30.25 in10.0 miNW (310°)17.3 mph26.5 mphSnowLight Snow
6:00 PM-9.4 °F-13.0 °F84 %30.26 in10.0 miNW (310°)17.3 mph24.2 mph
6:20 PM-9.4 °F-13.0 °F84 %30.26 in10.0 miNW (310°)13.8 mph26.5 mph
6:40 PM-9.4 °F-13.0 °F84 %30.26 in10.0 miNW (310°)16.1 mph23.0 mph
7:00 PM-9.4 °F-13.0 °F84 %30.27 in10.0 miWNW (300°)16.1 mph
7:20 PM-9.4 °F0.0 °F30.27 in10.0 miNW (310°)15.0 mph
7:40 PM-9.4 °F-11.2 °F92 %30.27 in10.0 miWNW (300°)13.8 mph
8:00 PM-9.4 °F-11.2 °F92 %30.27 in10.0 miWNW (300°)13.8 mph
8:20 PM-9.4 °F-11.2 °F92 %30.28 in10.0 miWNW (290°)11.5 mph
8:40 PM-9.4 °F-11.2 °F92 %30.28 in10.0 miWNW (290°)9.2 mph
9:00 PM-9.4 °F-11.2 °F92 %30.28 in10.0 miWNW (290°)11.5 mph
9:20 PM-9.4 °F-11.2 °F92 %30.28 in10.0 miWNW (300°)11.5 mph
9:40 PM-9.4 °F-11.2 °F92 %30.28 in10.0 miWNW (290°)9.2 mph
10:00 PM-9.4 °F-11.2 °F92 %30.28 in10.0 miWNW (290°)9.2 mph
10:20 PM-9.4 °F-11.2 °F92 %30.28 in10.0 miWNW (290°)10.4 mph
10:40 PM-9.4 °F-11.2 °F92 %30.27 in10.0 miWNW (290°)8.1 mph
11:00 PM-9.4 °F-11.2 °F92 %30.26 in10.0 miWNW (300°)9.2 mph
11:20 PM-9.4 °F-11.2 °F92 %30.26 in10.0 miNW (310°)8.1 mph
11:40 PM-9.4 °F-11.2 °F92 %30.25 in10.0 miWNW (300°)6.9 mph
Hourly data recorded from KMDS, located miles away from Chester, South Dakota







STORIES FROM OUR PARTNERS